User: anonymous   Login
Location: Fisheating Creek Campgrounds
(26.9333°N, 81.3167°W)
Time: 08:15:39
(UTC-04:00)
Language:

Cosmos 2221 Rocket - Orbit

View from above orbital plane
View from above orbital plane
View from above satellite
View from above satellite

Ground track
Ground track

The orbit data is extracted from the following two-line orbital elements,

1 22237U 92080B   17232.92668209 +.00000044 +00000-0 +29111-5 0  9999
2 22237 082.5099 057.5003 0019644 358.4653 113.1685 14.78323329332914
Epoch (UTC): 20 August 2017 22:14:25
Eccentricity: 0.0019644
inclination: 82.5099°
perigee height: 621 km
apogee height: 648 km
right ascension of ascending node: 57.5003°
argument of perigee: 358.4653°
revolutions per day: 14.78323329
mean anomaly at epoch: 113.1685°
orbit number at epoch: 33291

The dashed part of the orbit path shows where the satellite is in the earth's shadow,  

DLR